Location: Twentynine Palms Airport
(34.1316°N, 115.9458°W)
Time: 03:20:35
(UTC-07:00)

Oscar 19 - Visible Passes

Search period start: 26 July 2016 00:00
Search period end: 05 August 2016 00:00
Orbit: 773 x 791 km, 98.5° (Epoch: 25 July)

Date Brightness Start Highest point End Pass type
(mag) Time Alt. Az. Time Alt. Az. Time Alt. Az.
26 Jul 13.1 01:06:10 10° NE 01:07:17 14° ENE 01:07:17 14° ENE visible
26 Jul 11.6 02:44:04 10° N 02:47:50 39° NW 02:47:50 39° NW visible
27 Jul 11.6 02:12:06 10° NNE 02:15:36 44° NNE 02:15:36 44° NNE visible
28 Jul 12.4 01:40:37 10° NNE 01:43:21 27° NE 01:43:21 27° NE visible
28 Jul 12.3 03:20:41 10° NNW 03:23:55 21° WNW 03:23:55 21° WNW visible
29 Jul 13.1 01:09:53 10° NE 01:11:07 14° ENE 01:11:07 14° ENE visible
29 Jul 11.7 02:48:05 10° N 02:51:40 36° NW 02:51:40 36° NW visible
30 Jul 11.7 02:16:04 10° NNE 02:19:26 42° NNE 02:19:26 42° NNE visible
31 Jul 12.4 01:44:30 10° NNE 01:47:11 28° NE 01:47:11 28° NE visible
31 Jul 12.4 03:24:49 10° NNW 03:27:44 19° WNW 03:27:44 19° WNW visible
01 Aug 13.1 01:13:39 10° NE 01:14:56 15° ENE 01:14:56 15° ENE visible
01 Aug 11.9 02:52:07 10° N 02:55:30 32° NW 02:55:30 32° NW visible
02 Aug 11.8 02:20:01 10° N 02:23:15 39° N 02:23:15 39° N visible
03 Aug 12.4 01:48:25 10° NNE 01:51:00 28° NE 01:51:00 28° NE visible
03 Aug 12.5 03:28:57 10° NNW 03:31:33 17° NW 03:31:33 17° NW visible
04 Aug 13.1 01:17:26 10° NE 01:18:45 15° NE 01:18:45 15° NE visible
04 Aug 12.0 02:56:09 10° N 02:59:18 29° NW 02:59:18 29° NW visible
